Time,TemperatureF,DewpointF,PressureIn,WindDirection,WindDirectionDegrees,WindSpeedMPH,WindSpeedGustMPH,Humidity,HourlyPrecipIn,Conditions,Clouds,dailyrainin,SoftwareType,DateUTC
2013-01-26 00:00:00,14.8,5.8,30.04,WNW,292,0.0,6.0,67,0.00,,,0.00,Wunderground v.1.15,2013-01-26 05:00:00,
2013-01-26 00:05:00,14.6,6.6,30.04,East,90,0.0,6.0,70,0.00,,,0.00,Wunderground v.1.15,2013-01-26 05:05:00,
2013-01-26 00:10:00,14.4,7.3,30.04,East,90,0.0,6.0,73,0.00,,,0.00,Wunderground v.1.15,2013-01-26 05:10:00,
2013-01-26 00:20:00,14.1,7.6,30.04,East,90,0.0,6.0,75,0.00,,,0.00,Wunderground v.1.15,2013-01-26 05:20:00,
2013-01-26 00:30:00,13.8,7.6,30.03,East,90,0.0,6.0,76,0.00,,,0.00,Wunderground v.1.15,2013-01-26 05:30:00,
2013-01-26 00:40:00,13.6,8.0,30.03,East,90,0.0,6.0,78,0.00,,,0.00,Wunderground v.1.15,2013-01-26 05:40:00,
2013-01-26 00:50:00,13.5,8.2,30.03,East,90,0.0,6.0,79,0.00,,,0.00,Wunderground v.1.15,2013-01-26 05:50:00,
2013-01-26 00:55:00,13.4,8.1,30.03,East,90,0.0,6.0,79,0.00,,,0.00,Wunderground v.1.15,2013-01-26 05:55:00,
2013-01-26 01:05:00,13.3,8.0,30.02,East,90,0.0,6.0,79,0.00,,,0.00,Wunderground v.1.15,2013-01-26 06:05:00,
2013-01-26 01:15:00,13.2,8.2,30.03,East,90,0.0,6.0,80,0.00,,,0.00,Wunderground v.1.15,2013-01-26 06:15:00,
2013-01-26 01:25:00,13.2,8.2,30.02,East,90,0.0,6.0,80,0.00,,,0.00,Wunderground v.1.15,2013-01-26 06:25:00,
2013-01-26 01:30:00,13.1,8.1,30.02,East,90,0.0,6.0,80,0.00,,,0.00,Wunderground v.1.15,2013-01-26 06:30:00,
2013-01-26 01:40:00,13.1,8.4,30.02,WNW,291,0.0,6.0,81,0.00,,,0.00,Wunderground v.1.15,2013-01-26 06:40:00,
2013-01-26 01:50:00,12.9,8.2,30.02,WNW,291,0.0,6.0,81,0.00,,,0.00,Wunderground v.1.15,2013-01-26 06:50:00,
2013-01-26 01:55:00,12.8,8.1,30.02,WNW,291,0.0,6.0,81,0.00,,,0.00,Wunderground v.1.15,2013-01-26 06:55:00,
2013-01-26 02:05:00,12.7,8.0,30.01,ESE,103,0.0,6.0,81,0.00,,,0.00,Wunderground v.1.15,2013-01-26 07:05:00,
2013-01-26 02:15:00,12.4,7.7,30.01,ESE,103,0.0,6.0,81,0.00,,,0.00,Wunderground v.1.15,2013-01-26 07:15:00,
2013-01-26 02:25:00,12.2,7.5,30.01,ESE,102,0.0,6.0,81,0.00,,,0.00,Wunderground v.1.15,2013-01-26 07:25:00,
2013-01-26 02:35:00,12.0,7.3,30.00,ESE,102,0.0,6.0,81,0.00,,,0.00,Wunderground v.1.15,2013-01-26 07:35:00,
2013-01-26 02:45:00,11.9,7.2,30.00,ESE,102,0.0,6.0,81,0.00,,,0.00,Wunderground v.1.15,2013-01-26 07:45:00,
2013-01-26 02:50:00,11.8,6.8,30.00,ESE,102,0.0,6.0,80,0.00,,,0.00,Wunderground v.1.15,2013-01-26 07:50:00,
2013-01-26 03:00:00,11.5,6.5,30.00,ESE,103,0.0,0.0,80,0.00,,,0.00,Wunderground v.1.15,2013-01-26 08:00:00,
2013-01-26 03:10:00,11.2,6.2,30.00,ESE,102,0.0,0.0,80,0.00,,,0.00,Wunderground v.1.15,2013-01-26 08:10:00,
2013-01-26 03:20:00,11.0,6.0,30.00,SSE,161,0.0,0.0,80,0.00,,,0.00,Wunderground v.1.15,2013-01-26 08:20:00,
2013-01-26 03:30:00,10.8,5.8,29.99,SSE,162,0.0,0.0,80,0.00,,,0.00,Wunderground v.1.15,2013-01-26 08:30:00,
2013-01-26 03:35:00,10.7,5.7,29.99,SSE,164,0.0,2.0,80,0.00,,,0.00,Wunderground v.1.15,2013-01-26 08:35:00,
2013-01-26 03:45:00,10.5,5.5,29.99,SW,225,0.0,2.0,80,0.00,,,0.00,Wunderground v.1.15,2013-01-26 08:45:00,
2013-01-26 03:55:00,10.3,5.4,29.99,East,83,0.0,2.0,80,0.00,,,0.00,Wunderground v.1.15,2013-01-26 08:55:00,
2013-01-26 04:00:00,10.3,5.4,29.99,ENE,60,0.0,2.0,80,0.00,,,0.00,Wunderground v.1.15,2013-01-26 09:00:00,
2013-01-26 04:10:00,10.2,5.0,29.99,NNE,33,0.0,2.0,79,0.00,,,0.00,Wunderground v.1.15,2013-01-26 09:10:00,
2013-01-26 04:20:00,10.1,4.9,29.99,NE,36,0.0,2.0,79,0.00,,,0.00,Wunderground v.1.15,2013-01-26 09:20:00,
2013-01-26 04:25:00,9.9,4.7,29.99,NE,36,0.0,2.0,79,0.00,,,0.00,Wunderground v.1.15,2013-01-26 09:25:00,
2013-01-26 04:35:00,9.9,4.7,29.99,East,92,0.0,2.0,79,0.00,,,0.00,Wunderground v.1.15,2013-01-26 09:35:00,
2013-01-26 04:45:00,9.6,4.4,29.99,NNW,330,0.0,2.0,79,0.00,,,0.00,Wunderground v.1.15,2013-01-26 09:45:00,
2013-01-26 04:50:00,9.4,4.2,29.99,NNW,330,0.0,2.0,79,0.00,,,0.00,Wunderground v.1.15,2013-01-26 09:50:00,
2013-01-26 05:00:00,9.3,3.8,29.99,WSW,243,0.0,2.0,78,0.00,,,0.00,Wunderground v.1.15,2013-01-26 10:00:00,
2013-01-26 05:10:00,9.1,3.6,30.00,East,87,0.0,2.0,78,0.00,,,0.00,Wunderground v.1.15,2013-01-26 10:10:00,
2013-01-26 05:20:00,9.0,3.5,30.00,East,87,0.0,2.0,78,0.00,,,0.00,Wunderground v.1.15,2013-01-26 10:20:00,
2013-01-26 05:25:00,8.9,3.4,30.00,East,87,0.0,2.0,78,0.00,,,0.00,Wunderground v.1.15,2013-01-26 10:25:00,
2013-01-26 05:35:00,8.8,3.6,30.00,SW,217,0.0,2.0,79,0.00,,,0.00,Wunderground v.1.15,2013-01-26 10:35:00,
2013-01-26 05:45:00,8.7,3.2,30.01,SW,217,0.0,2.0,78,0.00,,,0.00,Wunderground v.1.15,2013-01-26 10:45:00,
2013-01-26 05:50:00,8.8,3.3,30.01,SW,217,0.0,2.0,78,0.00,,,0.00,Wunderground v.1.15,2013-01-26 10:50:00,
2013-01-26 06:00:00,8.8,3.3,30.01,SSW,209,0.0,2.0,78,0.00,,,0.00,Wunderground v.1.15,2013-01-26 11:00:00,
2013-01-26 06:10:00,8.8,3.1,30.01,SW,236,0.0,2.0,77,0.00,,,0.00,Wunderground v.1.15,2013-01-26 11:10:00,
2013-01-26 06:20:00,8.9,2.9,30.02,NE,40,0.0,2.0,76,0.00,,,0.00,Wunderground v.1.15,2013-01-26 11:20:00,
2013-01-26 06:30:00,8.9,2.6,30.02,NE,53,0.0,2.0,75,0.00,,,0.00,Wunderground v.1.15,2013-01-26 11:30:00,
2013-01-26 06:40:00,8.9,2.3,30.02,ESE,104,0.0,2.0,74,0.00,,,0.00,Wunderground v.1.15,2013-01-26 11:40:00,
2013-01-26 06:50:00,8.8,2.2,30.03,ESE,119,0.0,2.0,74,0.00,,,0.00,Wunderground v.1.15,2013-01-26 11:50:00,
2013-01-26 07:00:00,8.7,2.1,30.03,WSW,254,0.0,2.0,74,0.00,,,0.00,Wunderground v.1.15,2013-01-26 12:00:00,
2013-01-26 07:10:00,8.6,2.0,30.03,ENE,76,0.0,2.0,74,0.00,,,0.00,Wunderground v.1.15,2013-01-26 12:10:00,
2013-01-26 07:20:00,8.5,1.9,30.03,NW,325,0.0,2.0,74,0.00,,,0.00,Wunderground v.1.15,2013-01-26 12:20:00,
2013-01-26 07:30:00,8.5,1.6,30.04,West,266,0.0,2.0,73,0.00,,,0.00,Wunderground v.1.15,2013-01-26 12:30:00,
2013-01-26 07:35:00,8.6,1.7,30.04,WSW,244,0.0,2.0,73,0.00,,,0.00,Wunderground v.1.15,2013-01-26 12:35:00,
2013-01-26 07:45:00,9.0,1.8,30.04,ESE,103,0.0,2.0,72,0.00,,,0.00,Wunderground v.1.15,2013-01-26 12:45:00,
2013-01-26 07:55:00,9.3,2.1,30.04,West,271,0.0,2.0,72,0.00,,,0.00,Wunderground v.1.15,2013-01-26 12:55:00,
2013-01-26 08:00:00,9.5,2.0,30.04,ESE,105,1.0,1.0,71,0.00,,,0.00,Wunderground v.1.15,2013-01-26 13:00:00,
2013-01-26 08:10:00,9.9,2.4,30.04,East,97,1.0,1.0,71,0.00,,,0.00,Wunderground v.1.15,2013-01-26 13:10:00,
2013-01-26 08:20:00,10.4,2.5,30.04,East,88,0.0,2.0,70,0.00,,,0.00,Wunderground v.1.15,2013-01-26 13:20:00,
2013-01-26 08:25:00,10.8,2.6,30.04,WNW,285,1.0,4.0,69,0.00,,,0.00,Wunderground v.1.15,2013-01-26 13:25:00,
2013-01-26 08:35:00,11.0,2.5,30.05,WSW,242,1.0,2.0,68,0.00,,,0.00,Wunderground v.1.15,2013-01-26 13:35:00,
2013-01-26 08:45:00,11.6,2.8,30.04,East,90,1.0,5.0,67,0.00,,,0.00,Wunderground v.1.15,2013-01-26 13:45:00,
2013-01-26 08:55:00,11.9,2.7,30.05,SE,140,1.0,2.0,66,0.00,,,0.00,Wunderground v.1.15,2013-01-26 13:55:00,
2013-01-26 09:05:00,12.5,2.6,30.06,WNW,295,1.0,3.0,64,0.00,,,0.00,Wunderground v.1.15,2013-01-26 14:05:00,
2013-01-26 09:15:00,12.8,2.6,30.05,WNW,282,1.0,2.0,63,0.00,,,0.00,Wunderground v.1.15,2013-01-26 14:15:00,
2013-01-26 09:25:00,13.1,2.5,30.06,East,85,1.0,4.0,62,0.00,,,0.00,Wunderground v.1.15,2013-01-26 14:25:00,
2013-01-26 09:35:00,13.5,2.5,30.05,ESE,117,1.0,2.0,61,0.00,,,0.00,Wunderground v.1.15,2013-01-26 14:35:00,
2013-01-26 09:45:00,13.9,2.6,30.05,West,265,2.0,4.0,60,0.00,,,0.00,Wunderground v.1.15,2013-01-26 14:45:00,
2013-01-26 09:55:00,14.1,2.4,30.05,East,84,2.0,3.0,59,0.00,,,0.00,Wunderground v.1.15,2013-01-26 14:55:00,
2013-01-26 10:05:00,14.6,2.5,30.05,ENE,69,2.0,2.0,58,0.00,,,0.00,Wunderground v.1.15,2013-01-26 15:05:00,
2013-01-26 10:15:00,15.0,2.1,30.05,ESE,111,1.0,2.0,56,0.00,,,0.00,Wunderground v.1.15,2013-01-26 15:15:00,
2013-01-26 10:20:00,15.3,2.0,30.05,West,263,1.0,2.0,55,0.00,,,0.00,Wunderground v.1.15,2013-01-26 15:20:00,
2013-01-26 10:30:00,15.4,1.7,30.05,SW,225,2.0,2.0,54,0.00,,,0.00,Wunderground v.1.15,2013-01-26 15:30:00,
2013-01-26 10:35:00,15.6,1.5,30.05,South,176,2.0,2.0,53,0.00,,,0.00,Wunderground v.1.15,2013-01-26 15:35:00,
2013-01-26 10:45:00,16.1,1.9,30.04,West,271,1.0,2.0,53,0.00,,,0.00,Wunderground v.1.15,2013-01-26 15:45:00,
2013-01-26 10:55:00,16.5,1.5,30.04,East,93,1.0,2.0,51,0.00,,,0.00,Wunderground v.1.15,2013-01-26 15:55:00,
2013-01-26 11:00:00,17.0,2.0,30.04,WSW,254,1.0,1.0,51,0.00,,,0.00,Wunderground v.1.15,2013-01-26 16:00:00,
2013-01-26 11:10:00,16.9,0.6,30.03,ESE,106,2.0,3.0,48,0.00,,,0.00,Wunderground v.1.15,2013-01-26 16:10:00,
2013-01-26 11:20:00,17.3,1.8,30.03,ESE,110,1.0,1.0,50,0.00,,,0.00,Wunderground v.1.15,2013-01-26 16:20:00,
2013-01-26 11:25:00,17.5,1.1,30.03,West,259,2.0,2.0,48,0.00,,,0.00,Wunderground v.1.15,2013-01-26 16:25:00,
2013-01-26 11:35:00,17.7,0.4,30.03,East,88,1.0,6.0,46,0.00,,,0.00,Wunderground v.1.15,2013-01-26 16:35:00,
2013-01-26 11:45:00,17.6,0.3,30.03,WNW,302,2.0,2.0,46,0.00,,,0.00,Wunderground v.1.15,2013-01-26 16:45:00,
2013-01-26 11:50:00,17.6,-0.6,30.03,ESE,111,2.0,2.0,44,0.00,,,0.00,Wunderground v.1.15,2013-01-26 16:50:00,
2013-01-26 12:00:00,17.8,-1.0,30.02,West,279,2.0,2.0,43,0.00,,,0.00,Wunderground v.1.15,2013-01-26 17:00:00,
2013-01-26 12:10:00,18.2,-1.1,30.02,WNW,289,1.0,1.0,42,0.00,,,0.00,Wunderground v.1.15,2013-01-26 17:10:00,
2013-01-26 12:15:00,18.3,-1.5,30.02,WSW,250,2.0,2.0,41,0.00,,,0.00,Wunderground v.1.15,2013-01-26 17:15:00,
2013-01-26 12:25:00,18.4,-1.4,30.02,SSE,165,2.0,4.0,41,0.00,,,0.00,Wunderground v.1.15,2013-01-26 17:25:00,
2013-01-26 12:35:00,18.3,-1.5,30.02,SSW,211,2.0,2.0,41,0.00,,,0.00,Wunderground v.1.15,2013-01-26 17:35:00,
2013-01-26 12:40:00,18.1,-2.2,30.01,East,88,2.0,4.0,40,0.00,,,0.00,Wunderground v.1.15,2013-01-26 17:40:00,
2013-01-26 12:50:00,18.1,-1.7,30.01,SE,127,2.0,4.0,41,0.00,,,0.00,Wunderground v.1.15,2013-01-26 17:50:00,
2013-01-26 13:00:00,18.4,-1.4,30.01,ESE,123,2.0,2.0,41,0.00,,,0.00,Wunderground v.1.15,2013-01-26 18:00:00,
2013-01-26 13:05:00,18.8,-1.6,30.01,NE,50,1.0,3.0,40,0.00,,,0.00,Wunderground v.1.15,2013-01-26 18:05:00,
2013-01-26 13:15:00,18.9,-1.5,30.01,East,101,2.0,2.0,40,0.00,,,0.00,Wunderground v.1.15,2013-01-26 18:15:00,
2013-01-26 13:25:00,19.2,-1.2,30.01,SSE,161,2.0,4.0,40,0.00,,,0.00,Wunderground v.1.15,2013-01-26 18:25:00,
2013-01-26 13:35:00,19.5,-0.4,30.01,West,275,1.0,2.0,41,0.00,,,0.00,Wunderground v.1.15,2013-01-26 18:35:00,
2013-01-26 13:45:00,19.4,-0.5,30.02,West,271,1.0,6.0,41,0.00,,,0.00,Wunderground v.1.15,2013-01-26 18:45:00,
2013-01-26 13:55:00,19.1,-0.8,30.02,ESE,122,3.0,3.0,41,0.00,,,0.00,Wunderground v.1.15,2013-01-26 18:55:00,
2013-01-26 14:05:00,19.2,-0.7,30.02,SW,229,2.0,8.0,41,0.00,,,0.00,Wunderground v.1.15,2013-01-26 19:05:00,
2013-01-26 14:15:00,19.1,-0.3,30.02,SSW,196,2.0,2.0,42,0.00,,,0.00,Wunderground v.1.15,2013-01-26 19:15:00,
2013-01-26 14:25:00,19.3,-0.6,30.02,West,263,1.0,2.0,41,0.00,,,0.00,Wunderground v.1.15,2013-01-26 19:25:00,
2013-01-26 14:30:00,19.2,-0.2,30.03,West,267,2.0,2.0,42,0.00,,,0.00,Wunderground v.1.15,2013-01-26 19:30:00,
2013-01-26 14:40:00,19.1,-0.8,30.03,East,88,1.0,4.0,41,0.00,,,0.00,Wunderground v.1.15,2013-01-26 19:40:00,
2013-01-26 14:50:00,18.8,-1.6,30.04,WSW,255,2.0,2.0,40,0.00,,,0.00,Wunderground v.1.15,2013-01-26 19:50:00,
2013-01-26 14:55:00,18.8,-1.1,30.04,SSE,155,2.0,2.0,41,0.00,,,0.00,Wunderground v.1.15,2013-01-26 19:55:00,
2013-01-26 15:05:00,18.7,-2.8,30.05,ESE,115,1.0,2.0,38,0.00,,,0.00,Wunderground v.1.15,2013-01-26 20:05:00,
2013-01-26 15:15:00,18.6,-2.3,30.06,SSE,160,1.0,2.0,39,0.00,,,0.00,Wunderground v.1.15,2013-01-26 20:15:00,
2013-01-26 15:25:00,18.7,-1.7,30.06,WNW,303,2.0,2.0,40,0.00,,,0.00,Wunderground v.1.15,2013-01-26 20:25:00,
2013-01-26 15:35:00,18.6,-2.8,30.06,ENE,63,1.0,2.0,38,0.00,,,0.00,Wunderground v.1.15,2013-01-26 20:35:00,
2013-01-26 15:45:00,18.2,-3.8,30.06,SE,127,2.0,2.0,37,0.00,,,0.00,Wunderground v.1.15,2013-01-26 20:45:00,
2013-01-26 15:55:00,18.0,-3.4,30.07,East,83,2.0,2.0,38,0.00,,,0.00,Wunderground v.1.15,2013-01-26 20:55:00,
2013-01-26 16:05:00,18.0,-3.9,30.07,SSW,205,2.0,2.0,37,0.00,,,0.00,Wunderground v.1.15,2013-01-26 21:05:00,
2013-01-26 16:15:00,17.7,-4.2,30.08,SW,232,2.0,2.0,37,0.00,,,0.00,Wunderground v.1.15,2013-01-26 21:15:00,
2013-01-26 16:20:00,17.6,-3.7,30.08,West,280,2.0,2.0,38,0.00,,,0.00,Wunderground v.1.15,2013-01-26 21:20:00,
2013-01-26 16:30:00,17.4,-3.9,30.08,West,263,1.0,4.0,38,0.00,,,0.00,Wunderground v.1.15,2013-01-26 21:30:00,
2013-01-26 16:40:00,17.2,-4.1,30.08,West,267,1.0,1.0,38,0.00,,,0.00,Wunderground v.1.15,2013-01-26 21:40:00,
2013-01-26 16:50:00,17.0,-4.8,30.09,ESE,107,2.0,2.0,37,0.00,,,0.00,Wunderground v.1.15,2013-01-26 21:50:00,
2013-01-26 17:00:00,16.8,-4.5,30.10,WSW,250,1.0,1.0,38,0.00,,,0.00,Wunderground v.1.15,2013-01-26 22:00:00,
2013-01-26 17:10:00,16.5,-5.3,30.10,North,360,2.0,2.0,37,0.00,,,0.00,Wunderground v.1.15,2013-01-26 22:10:00,
2013-01-26 17:20:00,16.2,-5.6,30.10,West,262,1.0,2.0,37,0.00,,,0.00,Wunderground v.1.15,2013-01-26 22:20:00,
2013-01-26 17:30:00,16.1,-5.6,30.09,South,180,2.0,7.0,37,0.00,,,0.00,Wunderground v.1.15,2013-01-26 22:30:00,
2013-01-26 17:35:00,16.0,-5.7,30.10,ESE,105,2.0,7.0,37,0.00,,,0.00,Wunderground v.1.15,2013-01-26 22:35:00,
2013-01-26 17:45:00,15.9,-5.8,30.11,SW,232,2.0,4.0,37,0.00,,,0.00,Wunderground v.1.15,2013-01-26 22:45:00,
2013-01-26 17:55:00,15.7,-5.5,30.11,SW,236,1.0,4.0,38,0.00,,,0.00,Wunderground v.1.15,2013-01-26 22:55:00,
2013-01-26 18:05:00,15.6,-5.0,30.12,NNE,25,1.0,2.0,39,0.00,,,0.00,Wunderground v.1.15,2013-01-26 23:05:00,
2013-01-26 18:15:00,15.4,-5.2,30.13,NW,315,2.0,2.0,39,0.00,,,0.00,Wunderground v.1.15,2013-01-26 23:15:00,
2013-01-26 18:25:00,15.1,-4.9,30.13,SSW,194,1.0,4.0,40,0.00,,,0.00,Wunderground v.1.15,2013-01-26 23:25:00,
2013-01-26 19:05:00,14.2,-3.8,30.14,SSW,198,1.0,1.0,44,0.00,,,0.00,Wunderground v.1.15,2013-01-27 00:05:00,
2013-01-26 19:15:00,13.7,-3.3,30.14,ENE,78,1.0,1.0,46,0.00,,,0.00,Wunderground v.1.15,2013-01-27 00:15:00,
2013-01-26 19:25:00,13.3,-3.7,30.14,North,355,1.0,2.0,46,0.00,,,0.00,Wunderground v.1.15,2013-01-27 00:25:00,
2013-01-26 19:35:00,13.0,-3.5,30.15,WNW,291,0.0,2.0,47,0.00,,,0.00,Wunderground v.1.15,2013-01-27 00:35:00,
2013-01-26 19:40:00,12.9,-3.1,30.15,WNW,288,0.0,3.0,48,0.00,,,0.00,Wunderground v.1.15,2013-01-27 00:40:00,
2013-01-26 19:50:00,12.7,-3.3,30.15,WSW,253,0.0,2.0,48,0.00,,,0.00,Wunderground v.1.15,2013-01-27 00:50:00,
2013-01-26 19:55:00,12.7,-3.3,30.15,West,267,1.0,3.0,48,0.00,,,0.00,Wunderground v.1.15,2013-01-27 00:55:00,
2013-01-26 20:05:00,12.6,-3.0,30.16,West,271,1.0,2.0,49,0.00,,,0.00,Wunderground v.1.15,2013-01-27 01:05:00,
2013-01-26 20:15:00,12.3,-2.4,30.16,SW,232,0.0,2.0,51,0.00,,,0.00,Wunderground v.1.15,2013-01-27 01:15:00,
2013-01-26 20:20:00,12.2,-2.1,30.16,SE,132,0.0,2.0,52,0.00,,,0.00,Wunderground v.1.15,2013-01-27 01:20:00,
2013-01-26 20:30:00,11.9,-1.6,30.16,WSW,248,0.0,2.0,54,0.00,,,0.00,Wunderground v.1.15,2013-01-27 01:30:00,
2013-01-26 20:40:00,11.9,-1.2,30.16,NE,38,1.0,1.0,55,0.00,,,0.00,Wunderground v.1.15,2013-01-27 01:40:00,
2013-01-26 20:45:00,11.9,-0.8,30.16,North,349,0.0,2.0,56,0.00,,,0.00,Wunderground v.1.15,2013-01-27 01:45:00,
2013-01-26 20:55:00,11.9,-0.4,30.17,West,266,0.0,2.0,57,0.00,,,0.00,Wunderground v.1.15,2013-01-27 01:55:00,
2013-01-26 21:05:00,11.9,-0.1,30.16,West,261,1.0,4.0,58,0.00,,,0.00,Wunderground v.1.15,2013-01-27 02:05:00,
2013-01-26 21:15:00,11.7,0.1,30.16,SSW,206,0.0,2.0,59,0.00,,,0.00,Wunderground v.1.15,2013-01-27 02:15:00,
2013-01-26 21:25:00,11.8,0.6,30.16,East,98,1.0,2.0,60,0.00,,,0.00,Wunderground v.1.15,2013-01-27 02:25:00,
2013-01-26 21:35:00,12.0,0.8,30.16,NNE,28,1.0,2.0,60,0.00,,,0.00,Wunderground v.1.15,2013-01-27 02:35:00,
2013-01-26 21:45:00,12.1,0.9,30.16,WNW,290,1.0,2.0,60,0.00,,,0.00,Wunderground v.1.15,2013-01-27 02:45:00,
2013-01-26 21:55:00,12.5,1.2,30.17,East,99,1.0,4.0,60,0.00,,,0.00,Wunderground v.1.15,2013-01-27 02:55:00,
2013-01-26 22:00:00,12.5,1.2,30.17,SW,215,1.0,2.0,60,0.00,,,0.00,Wunderground v.1.15,2013-01-27 03:00:00,
2013-01-26 22:10:00,12.4,1.5,30.17,North,349,1.0,2.0,61,0.00,,,0.00,Wunderground v.1.15,2013-01-27 03:10:00,
2013-01-26 22:15:00,12.4,1.5,30.17,West,261,1.0,2.0,61,0.00,,,0.00,Wunderground v.1.15,2013-01-27 03:15:00,
2013-01-26 22:25:00,12.3,1.4,30.18,SE,146,1.0,2.0,61,0.00,,,0.00,Wunderground v.1.15,2013-01-27 03:25:00,
2013-01-26 22:35:00,12.5,1.6,30.18,WNW,288,2.0,2.0,61,0.00,,,0.00,Wunderground v.1.15,2013-01-27 03:35:00,
2013-01-26 23:05:00,12.3,1.7,30.19,South,175,1.0,5.0,62,0.00,,,0.00,Wunderground v.1.15,2013-01-27 04:05:00,
2013-01-26 23:15:00,12.5,1.9,30.19,West,272,2.0,2.0,62,0.00,,,0.00,Wunderground v.1.15,2013-01-27 04:15:00,
2013-01-26 23:25:00,12.5,1.9,30.20,West,279,1.0,6.0,62,0.00,,,0.00,Wunderground v.1.15,2013-01-27 04:25:00,
2013-01-26 23:35:00,12.6,2.0,30.19,NE,40,2.0,2.0,62,0.00,,,0.00,Wunderground v.1.15,2013-01-27 04:35:00,
2013-01-26 23:45:00,12.5,1.9,30.18,WNW,294,1.0,1.0,62,0.00,,,0.00,Wunderground v.1.15,2013-01-27 04:45:00,
2013-01-26 23:55:00,12.5,2.3,30.18,WSW,252,2.0,2.0,63,0.00,,,0.00,Wunderground v.1.15,2013-01-27 04:55:00,